Austin Bergstrom, TX

12:18 PM CDT on July 26, 2017 (GMT -0500)
Austin Bergstrom International

Weather History for KAUS - March, 2014

Change the Weather History Date:

Monday, March 17, 2014

  Actual Average Record
Temperature  
Mean Temperature 55 °F 60 °F  
Max Temperature 67 °F 72 °F 89 °F (1972)
Min Temperature 42 °F 47 °F 30 °F (2005)
Degree Days  
Heating Degree Days 10 7  
Month to date heating degree days 212 149  
Since 1 July heating degree days 2029 1764  
Cooling Degree Days 0 1  
Month to date cooling degree days 5 17  
Year to date cooling degree days 22 33  
Growing Degree Days 5 (Base 50)    
Moisture  
Dew Point 28 °F    
Average Humidity 45    
Maximum Humidity 65    
Minimum Humidity 24    
Precipitation  
Precipitation 0.00 in 0.09 in 2.00 in (1988)
Month to date precipitation 1.19 1.55  
Year to date precipitation 2.28 6.06  
Snow  
Snow 0.00 in - - ()
Month to date snowfall 0.0  
Since 1 July snowfall T  
Snow Depth 0.00 in    
Sea Level Pressure  
Sea Level Pressure 29.94 in    
Wind  
Wind Speed 9 mph (NNW)    
Max Wind Speed 26 mph    
Max Gust Speed 32 mph    
Visibility 10 miles    
Events      
T = Trace of Precipitation, MM = Missing Value Source: NWS Daily Summary

Daily Weather History Graph

Daily Weather History Graph

Search for Another Location

Airport or City:

Trip Planner

Search our weather history database for the weather conditions in past years. The results will help you decide how hot, cold, wet, or windy it might be!

Date:

Astronomy

Mar. 17, 2014 Rise Set
Actual Time 7:38 AM CDT 7:40 PM CDT
Civil Twilight 7:14 AM CDT 8:04 PM CDT
Nautical Twilight 6:46 AM CDT 8:32 PM CDT
Astronomical Twilight 6:18 AM CDT 9:00 PM CDT
Moon 8:50 PM CDT (3/17) 8:00 AM CDT (3/17)
Length of Visible Light 12h 50m
Length of Day
12h 02m
Full, 99% of the Moon is Illuminated
Mar 17
Full
Mar 23
Last Quarter
Mar 30
New
Apr 7
First Quarter
Apr 15
Full

Hourly Weather History & Observations

Time (CDT) Temp. Windchill Dew Point Humidity Pressure Visibility Wind Dir Wind Speed Gust Speed Precip Events Conditions
12:53 AM 48.0 °F - 34.0 °F 58% 30.04 in 10.0 mi North 15.0 mph 26.5 mph N/A   Overcast
1:53 AM 48.0 °F - 32.0 °F 54% 30.06 in 10.0 mi North 20.7 mph 27.6 mph N/A   Overcast
2:53 AM 48.0 °F - 30.0 °F 50% 30.04 in 10.0 mi NNW 13.8 mph 20.7 mph N/A   Overcast
3:53 AM 46.9 °F - 28.0 °F 48% 30.02 in 10.0 mi North 12.7 mph 24.2 mph N/A   Mostly Cloudy
4:53 AM 46.0 °F 39.6 °F 27.0 °F 47% 30.01 in 10.0 mi NNW 15.0 mph 23.0 mph N/A   Partly Cloudy
5:53 AM 45.0 °F 39.7 °F 28.0 °F 52% 30.01 in 10.0 mi NNW 10.4 mph - N/A   Clear
6:53 AM 43.0 °F 36.4 °F 27.0 °F 53% 30.02 in 10.0 mi NNW 12.7 mph - N/A   Clear
7:53 AM 43.0 °F 38.2 °F 27.0 °F 53% 30.03 in 10.0 mi NNW 8.1 mph - N/A   Clear
8:53 AM 46.0 °F 41.4 °F 28.0 °F 50% 30.04 in 10.0 mi NNW 9.2 mph - N/A   Clear
9:53 AM 50.0 °F - 26.1 °F 39% 30.05 in 10.0 mi North 11.5 mph - N/A   Partly Cloudy
10:53 AM 53.1 °F - 25.0 °F 34% 30.05 in 10.0 mi North 12.7 mph - N/A   Partly Cloudy
11:53 AM 55.9 °F - 26.1 °F 32% 30.02 in 10.0 mi NNE 10.4 mph - N/A   Clear
12:53 PM 57.9 °F - 26.1 °F 30% 30.00 in 10.0 mi Variable 5.8 mph - N/A   Clear
1:53 PM 63.0 °F - 28.0 °F 27% 29.96 in 10.0 mi WNW 10.4 mph - N/A   Clear
2:53 PM 64.0 °F - 26.1 °F 24% 29.90 in 10.0 mi Variable 5.8 mph - N/A   Clear
3:53 PM 64.9 °F - 26.1 °F 23% 29.86 in 10.0 mi Calm Calm - N/A   Clear
4:53 PM 66.9 °F - 28.0 °F 23% 29.83 in 10.0 mi SSE 5.8 mph - N/A   Clear
5:53 PM 66.9 °F - 28.0 °F 23% 29.80 in 10.0 mi SSW 6.9 mph - N/A   Scattered Clouds
6:53 PM 64.0 °F - 28.9 °F 27% 29.80 in 10.0 mi SSE 9.2 mph - N/A   Mostly Cloudy
7:53 PM 60.1 °F - 30.9 °F 33% 29.78 in 10.0 mi SSE 8.1 mph - N/A   Scattered Clouds
8:53 PM 54.0 °F - 32.0 °F 43% 29.79 in 10.0 mi SSE 8.1 mph - N/A   Partly Cloudy
9:53 PM 48.9 °F - 33.1 °F 54% 29.79 in 10.0 mi South 9.2 mph - N/A   Partly Cloudy
10:53 PM 46.9 °F - 33.1 °F 59% 29.79 in 10.0 mi South 6.9 mph - N/A   Partly Cloudy
11:53 PM 44.1 °F 39.5 °F 33.1 °F 65% 29.78 in 10.0 mi South 8.1 mph - N/A   Clear